Back to catalog

STARLINK-30071

AliveCommunicationsVLEO
NORAD 56708·PAYLOAD·🇺🇸 United States

Launched May 19, 2023 from Cape Canaveral Space Force Station

Loading…

Next Passes (next 24 hours)

TLE

FreshSource: CelesTrak SupGP

Epoch: Sep 14, 2026, 14:12 UTC

1 56708C 23067W   26257.59215278  .00035846  00000+0  12979-2 0  2577
2 56708  43.0003 287.8436 0001678 273.4545 241.3049 15.27570516    11

Track STARLINK-30071 in real time with AllMySat

Download on the App Store